[[{"header":{"parameterUnit":"m.s-1","parameterCategory":1,"la1":30.2992,"la2":30.254,"lo1":-89.0895,"lo2":-89.0443,"dy":0.0025,"dx":0.0025,"nx":19,"ny":19,"refTime":"2026-05-19T03:00:00:Z","depth":0,"parameterNumber":2,"parameterNumberName":"U-component_of_WINDS"},"data":[0,0,0,-2.0851,-2.0851,-2.0857,-2.0857,-2.0874,-2.0874,0,0,0,0,0,0,0,0,0,0,0,-2.0854,-2.0855,-2.0851,-2.0851,-2.0857,-2.0857,-2.0874,-2.0874,0,0,0,0,0,0,0,0,0,0,0,-2.0854,-2.0855,-2.0855,-2.0851,-2.0857,-2.0857,-2.0874,-2.0866,0,0,0,0,0,0,0,0,0,0,-2.0858,-2.0867,-2.0855,-2.0855,-2.0851,-2.0857,-2.0857,-2.0865,-2.0866,-2.0875,0,-2.0885,0,-2.088,-2.0876,-2.0876,0,0,0,-2.0846,-2.0867,-2.0863,-2.0855,-2.0851,-2.0857,-2.0853,-2.0866,-2.0867,-2.0877,-2.0885,-2.0885,-2.088,-2.0876,-2.0876,-2.0943,-2.0944,0,0,-2.0846,-2.0858,-2.0863,-2.0864,-2.0864,-2.0853,-2.0853,-2.0866,-2.0876,-2.0885,-2.0885,-2.088,-2.0876,-2.0876,-2.0943,-2.0944,0,0,0,-2.0848,-2.0858,-2.0854,-2.0864,-2.0864,-2.0853,-2.0853,-2.0875,-2.0873,-2.0886,-2.0881,-2.0876,-2.0877,-2.0942,-2.0943,-2.0981,0,0,0,-2.0848,-2.0859,-2.0854,-2.0862,-2.0864,-2.087,-2.0862,-2.0872,-2.0873,-2.0881,-2.0876,-2.0877,-2.0942,-2.0943,-2.0978,-2.0996,0,0,0,-2.0852,-2.086,-2.0863,-2.0863,-2.0866,-2.0869,-2.0868,-2.0872,-2.087,-2.0876,-2.0877,-2.0941,-2.0943,-2.0976,-2.0992,-2.1017,0,0,0,-2.086,-2.0895,-2.0864,-2.0901,-2.0866,-2.0893,-2.0867,-2.0887,-2.0896,-2.0876,-2.0942,-2.0943,-2.0976,-2.099,-2.1015,-2.1039,-2.1051,0,0,-2.0911,-2.0902,-2.0923,-2.0895,-2.0931,-2.0891,-2.0932,-2.0929,-2.0918,-2.0936,-2.0937,-2.0979,-2.0992,-2.1016,-2.1113,-2.1122,0,0,0,-2.0943,-2.0958,-2.0965,-2.0975,-2.0974,-2.0975,-2.0965,-2.0964,-2.0978,-2.093,-2.0995,-2.1002,-2.1016,-2.1027,-2.1035,-2.1046,-2.0949,-2.0949,-2.0949,-2.1031,-2.1017,-2.1051,-2.1038,-2.1048,-2.1038,-2.1045,-2.1042,-2.1024,-2.104,-2.1044,-2.1105,-2.1118,-2.1124,-2.1136,-2.1057,-2.1057,-2.1057,-2.1057,-2.1103,-2.1123,-2.11,-2.1125,-2.111,-2.1131,-2.1124,-2.111,-2.1128,-2.11,-2.1111,-2.1081,-2.1135,-2.1144,-2.106,-2.1059,-2.1059,-2.1059,-2.1059,-2.1158,-2.1165,-2.1165,-2.1179,-2.1192,-2.1178,-2.1197,-2.1182,-2.1169,-2.1181,-2.1184,-2.1183,-2.118,-2.1184,-2.1184,-2.1184,-2.1184,-2.1184,-2.1185,-2.1215,-2.1213,-2.1231,-2.1235,-2.124,-2.1246,-2.1239,-2.1244,-2.1246,-2.1234,-2.1234,-2.1214,-2.1143,-2.1125,-2.1188,-2.1187,-2.1187,-2.1186,-2.1186,-2.1292,-2.1273,-2.1299,-2.1305,-2.131,-2.1324,-2.1307,-2.1319,-2.1322,-2.1331,-2.131,-2.1261,-2.125,-2.1243,-2.1228,-2.1313,-2.1313,-2.1313,-2.1313,-2.1337,-2.1331,-2.1356,-2.1367,-2.1376,-2.1363,-2.1395,-2.1391,-2.1383,-2.1383,-2.137,-2.1349,-2.1343,-2.1335,-2.1327,-2.1313,-2.1418,-2.1418,-2.1418,-2.1384,-2.1378,-2.1407,-2.14,-2.1404,-2.1407,-2.1436,-2.145,-2.1437,-2.1422,-2.1384,-2.1379,-2.1346,-2.1336,-2.1317,-2.1305,-2.1278,0,0]},{"header":{"parameterUnit":"m.s-1","parameterCategory":1,"la1":30.2992,"la2":30.254,"lo1":-89.0895,"lo2":-89.0443,"dy":0.0025,"dx":0.0025,"nx":19,"ny":19,"refTime":"2026-05-19T03:00:00:Z","depth":0,"parameterNumber":3,"parameterNumberName":"V-component_of_WINDS"},"data":[0,0,0,2.9861,2.986,2.9858,2.9858,2.9837,2.9837,0,0,0,0,0,0,0,0,0,0,0,2.9852,2.9852,2.9861,2.986,2.9858,2.9858,2.9837,2.9837,0,0,0,0,0,0,0,0,0,0,0,2.9852,2.9852,2.9851,2.986,2.9858,2.9858,2.9837,2.9845,0,0,0,0,0,0,0,0,0,0,2.985,2.9834,2.9852,2.9851,2.986,2.9858,2.9858,2.9845,2.9844,2.9831,0,2.9818,0,2.9827,2.9834,2.9834,0,0,0,2.9867,2.9835,2.9843,2.9851,2.986,2.9858,2.9861,2.9845,2.9844,2.9829,2.9818,2.9818,2.9827,2.9834,2.9834,2.9741,2.974,0,0,2.9867,2.9846,2.9843,2.9841,2.9843,2.9861,2.986,2.9845,2.983,2.9818,2.9818,2.9826,2.9834,2.9833,2.9741,2.9741,0,0,0,2.9863,2.9846,2.9855,2.9842,2.9843,2.986,2.986,2.9831,2.9835,2.9817,2.9826,2.9834,2.9833,2.9742,2.9741,2.9686,0,0,0,2.9863,2.9844,2.9854,2.9842,2.9843,2.9837,2.9847,2.9837,2.9835,2.9826,2.9834,2.9833,2.9743,2.9742,2.9689,2.9663,0,0,0,2.9855,2.9843,2.984,2.9841,2.9839,2.9838,2.9842,2.9837,2.984,2.9834,2.9833,2.9744,2.9742,2.9692,2.9668,2.9633,0,0,0,2.9841,2.979,2.9839,2.9785,2.9839,2.9804,2.9842,2.9817,2.9805,2.9833,2.9743,2.9741,2.9693,2.9671,2.9636,2.9599,2.9583,0,0,2.9765,2.978,2.975,2.9794,2.9746,2.9806,2.975,2.9757,2.9774,2.975,2.9748,2.9688,2.9668,2.9633,2.9496,2.9482,0,0,0,2.9719,2.9697,2.9689,2.9678,2.9684,2.9686,2.9705,2.9708,2.9689,2.9758,2.9667,2.9656,2.9636,2.962,2.9608,2.9592,2.9733,2.9733,2.9733,2.9581,2.9608,2.956,2.9587,2.9575,2.9596,2.9589,2.9596,2.9624,2.9602,2.9595,2.9509,2.9489,2.948,2.9464,2.9579,2.9578,2.9578,2.9578,2.9472,2.9446,2.9487,2.9456,2.9484,2.9457,2.9475,2.9496,2.9475,2.9516,2.95,2.9542,2.9465,2.9452,2.9574,2.9575,2.9575,2.9576,2.9576,2.9385,2.9377,2.9383,2.937,2.9357,2.9385,2.9363,2.9389,2.9413,2.9397,2.9393,2.9394,2.9398,2.9393,2.9393,2.9393,2.9393,2.9392,2.9392,2.9292,2.93,2.928,2.9283,2.9279,2.9278,2.9299,2.9296,2.9299,2.9319,2.9319,2.935,2.9453,2.9478,2.9388,2.9388,2.9389,2.9389,2.939,2.9171,2.9203,2.917,2.9167,2.9173,2.9159,2.9193,2.9184,2.9186,2.9174,2.9208,2.9281,2.9297,2.9306,2.9327,2.9203,2.9203,2.9203,2.9203,2.9096,2.9108,2.9082,2.9075,2.9072,2.91,2.9061,2.9077,2.9098,2.91,2.9122,2.9152,2.9161,2.9172,2.9184,2.9204,2.9052,2.9052,2.9052,2.9024,2.9036,2.8999,2.9023,2.9029,2.9034,2.8999,2.8989,2.9019,2.9046,2.9103,2.9109,2.9158,2.9173,2.92,2.9218,2.9255,0,0]}]]